301  
ASUS41 KOKX 041105  
RWROKX  
 
REGIONAL WEATHER ROUNDUP  
NATIONAL WEATHER SERVICE NEW YORK NY  
600 AM EST WED MAR 04 2015  
 
NOTE: "FAIR" INDICATES FEW OR NO CLOUDS BELOW 12,000 FEET WITH NO  
SIGNIFICANT WEATHER AND/OR S TO VISIBILITY
.  
 
NYZ071-072-176-178-NJZ106-104-041200-  
NEW YORK CITY METRO AREA  
 
 
CITY SKY/WX TMP DP RH WIND PRES REMARKS
 
CENTRAL PARK MIX PCPN 36 32 85 SW6 29.82R FOG WCI 31  
LAGUARDIA APRT LGT RAIN 37 32 82 SW8 29.80R WCI 31  
KENNEDY INTL LGT RAIN 37 32 82 W8 29.82R WCI 31  
NEWARK/LIBERTY LGT RAIN 35 32 88 SW7 29.81R WCI 29  
BRNX BOT. GARD N/A 36 32 87 SW7 29.81S WCI 30  
TETERBORO LGT RAIN 35 32 88 SW7 29.80R WCI 29  

 
 
NYZ177-179-078>081-041200-  
LONG ISLAND NEW YORK  
 
CITY SKY/WX TMP DP RH WIND PRES REMARKS
 
FARMINGDALE MIX PCPN 35 33 92 SW6 29.79R FOG WCI 30  
ISLIP LGT RAIN 35 32 88 W8 29.78R WCI 29  
SHIRLEY LGT RAIN 36 34 92 W8 29.80R FOG WCI 30  
WESTHAMPTON LGT RAIN 36 33 89 W12 29.80R FOG WCI 28  
MONTAUK POINT N/A 37 35 92 SW8 29.77R WCI 31  

 
 
NYZ052-065-067-041200-  
HUDSON VALLEY  
 
CITY SKY/WX TMP DP RH WIND PRES REMARKS
 
WHITE PLAINS LGT RAIN 34 32 92 W3 29.76R FOG  
NEWBURGH LGT RAIN 34 32 93 W7 29.77R WCI 28  
MONTGOMERY LGT RAIN 34 31 88 SW8 29.75R FOG WCI 27  
POUGHKEEPSIE CLOUDY 35 31 85 SW6 29.77R WCI 30  
ALBANY CLOUDY 33 28 81 E3 29.75R  

 
 
NJZ001-105-106-008-010-013-015-019>022-104-041200-  
NEW JERSEY  
 
CITY SKY/WX TMP DP RH WIND PRES REMARKS
 
NEWARK/LIBERTY LGT RAIN 35 32 88 SW7 29.81R WCI 29  
TETERBORO LGT RAIN 35 32 88 SW7 29.80R WCI 29  
CALDWELL LGT RAIN 34 31 88 SW3 29.80R FOG  
MORRISTOWN MIX PCPN 36 34 93 CALM 29.80R  
SOMERVILLE LGT RAIN 35 32 88 CALM 29.79S FOG  
SUSSEX LGT RAIN 33 31 92 S3 29.78R FOG  
ANDOVER N/A 32 31 96 VRB3 29.79R  
TRENTON FRZ RAIN 35 33 92 SW5 29.83R WCI 31  
MILLVILLE CLOUDY 40 38 93 SW6 29.83R FOG  
ATLANTIC CITY NOT AVBL  
WRIGHTSTOWN CLOUDY 37 36 93 W8 29.79R WCI 31  
TOMS RIVER CLOUDY 37 37 100 CALM 29.79R  
BELMAR CLOUDY 37 32 81 W9 29.81R WCI 31  

 
 
PAZ047>061-062-071-041200-  
EASTERN PENNSYLVANIA  
 
CITY SKY/WX TMP DP RH WIND PRES REMARKS
 
PHILADELPHIA DRIZZLE 34 33 96 W8 29.85R FOG WCI 27  
ALLENTOWN SLEET 34 31 88 SW7 29.81R FOG WCI 28  
SCRANTON MIX PCPN 32 29 88 SW5 29.79R FOG WCI 27  

 
 
CTZ002-004>006-009-010-012-RIZ004-006-007-MAZ004-011-015-041200-  
SOUTHERN NEW ENGLAND  
IN CT  
 
CITY SKY/WX TMP DP RH WIND PRES REMARKS
 
BRADLEY INTL CLOUDY 36 32 85 S8 29.73R WCI 30  
HARTFORD LGT RAIN 35 33 92 S6 29.75R WCI 30  
DANBURY LGT RAIN 33 30 88 W12 29.76R FOG WCI 24  
WTRBRY/OXFORD LGT RAIN 34 28 80 W8 29.94R FOG WCI 27  
BRIDGEPORT LGT RAIN 33 32 96 SW10 29.78R FOG WCI 25  
MERIDEN LGT RAIN 34 32 92 S5 29.76R FOG WCI 30  
NEW HAVEN LGT RAIN 34 32 92 SW8 29.77R WCI 27  
CHESTER LGT RAIN 34 34 100 SW9 29.73S WCI 26  
GROTON LGT RAIN 34 34 100 W14 29.75R WCI 25  
WILLIMANTIC LGT RAIN 36 33 89 SW3 29.73R  
 
IN RI  
 
CITY SKY/WX TMP DP RH WIND PRES REMARKS
 
PROVIDENCE LGT RAIN 37 33 85 SW12 29.72R WCI 29  
BLOCK ISLAND CLOUDY 36 32 87 SW15 29.74R WCI 26  
WESTERLY LGT RAIN 34 33 96 W10G18 29.76R WCI 26  
 
IN MA  
 
CITY SKY/WX TMP DP RH WIND PRES REMARKS
 
BOSTON CLOUDY 37 34 89 SW12 29.67R WCI 29  
WORCESTER CLOUDY 35 32 88 W21G29 29.63R WCI 24  
WESTFIELD CLOUDY 35 32 88 S8 29.71R WCI 29  
PROVINCETOWN CLOUDY 36 32 87 SW13 29.70R WCI 27  
NANTUCKET CLOUDY 37 35 92 W22G32 29.74R WCI 26  

 
 
ANZ330-335-338-340-345-350-353-355-041200-  
COASTAL MARINE OBSERVATIONS  
 
 
STATION/POSITION TIME SKY/WX TEMP WIND PRES VSBY WAVE
 
AIR SEA DIR/SP/G HT/PER  
(UTC) (F) (DEG/KT/KT) (MB) (MI) (FT/S)  
NY HARB ENTRANCE 1100 37 38 320/ 10/ 12 1009.2 4/ 6  
4S FIRE IS 1000 32 N/A 5/ 6  
20S FIRE ISLAND 1000 36 1008.4 6/ 6  
23SW MTP 1100 N/A 7/ 7  
HUDSON CANYON NOT AVBL  
EXECUTION ROCKS NOT AVBL  
WESTERN LI SOUND NOT AVBL  
CENTRAL LI SOUND NOT AVBL  
EASTERN LI SOUND NOT AVBL  
ROBBINS REEF 1100 36 250/ 6/ 8 1008.0  

 
 
>>>>>>>>>>>>>>>>>>>>>>>>>>>> KEY <<<<<<<<<<<<<<<<<<<<<<<<<<<  
> <  
> SKY/WX - SKY CONDITION/PRESENT WEATHER <  
> TMP - TEMPERATURE IN FAHRENHEIT <  
> DP - DEWPOINT IN FAHRENHEIT <  
> RH - RELATIVE HUMIDITY IN PERCENT <  
> WIND - DIRECTION AND SPEED IN MPH <  
> PRES - MEAN SEA LEVEL PRESSURE IN INCHES OF HG <  
> WCI - WIND CHILL INDEX <  
> VSB - VISIBILITY IN MILES <  
> HX - HEAT INDEX <  
> TC - TEMPERATURE IN CELSIUS <  
> VRB - VARIABLE WIND DIRECTION <  
> <  
>>>>>>>>>>>>>>>>>>>>>>>>>>>> KEY <<<<<<<<<<<<<<<<<<<<<<<<<<<  
 
CLICK HERE TO GO TO PREVIOUS BULLETINS.

The Nexlab NY Page
The Nexlab NJ Page
The Nexlab CT Page Main Text Page